00002 4.13 0.11 K02BM 218.05718 310.42308 173.16621 34.84637 0.2299714 0.21340155 2.7733478 MPC 24084 5482 63 1839-1993 0.55 M-c 28 Bowell 0000 (2) Pallas 00003 5.33 0.32 K02BM 119.14623 247.94801 170.13285 12.97220 0.2588635 0.22630198 2.6669230 MPC 24084 4741 65 1839-1993 0.56 M-c 08 Bowell 0000 (3) Juno 00004 3.20 0.32 K02BM 267.24201 149.97036 103.94248 7.13363 0.0886385 0.27149482 2.3620823 MPC 24219 5168 56 1841-1993 0.56 M-c 18 Bowell 0000 (4) Vesta 00008 6.49 0.28 K02BM 184.54441 285.03568 111.03537 5.88736 0.1566968 0.30184562 2.2009633 0 MPO 25662 2438 102 1847-2000 0.54 M-v 38h Goffin 0000 (8) Flora 00009 6.28 0.17 K02BM 113.70033 5.54082 68.98722 5.57695 0.1222289 0.26743537 2.3859252 0 MPO 25662 2131 96 1822-2001 0.54 M-v 38h Goffin 0000 (9) Metis 00011 6.55 0.15 K02BM 179.88468 195.16375 125.63823 4.62444 0.0989843 0.25638132 2.4540220 MPC 24085 2613 61 1850-1993 0.57 M-c 08 Bowell 0000 (11) Parthenope 00012 7.24 0.22 K02BM 274.69461 69.80046 235.55447 8.36246 0.2205374 0.27645082 2.3337668 MPC 24085 995 49 1850-1994 0.62 M-c 08 Bowell 0000 (12) Victoria 00013 6.74 0.15 K02BM 197.04442 81.12946 43.31423 16.53730 0.0846215 0.23828926 2.5767151 0 MPO 2601 946 54 1850-2000 0.77 M-v 38h Williams 0000 (13) Egeria 00014 6.30 0.15 K02BM 184.15808 96.47995 86.50109 9.10646 0.1680196 0.23711851 2.5851897 0 MPO 595 1765 84 1851-2000 0.54 M-v 38h Goffin 0000 (14) Irene 00016 5.90 0.20 K02BM 184.84488 228.27918 150.35693 3.09542 0.1396854 0.19762861 2.9190140 0 MPC 35055 1831 96 1852-1998 0.53 M-v 38h Goffin 0000 (16) Psyche 00019 7.13 0.10 K02BM 87.33545 182.27367 211.43017 1.57180 0.1586406 0.25811724 2.4430070 MPC 24219 654 52 1869-1993 0.67 M-c 08 Bowell 0000 (19) Fortuna 00021 7.35 0.11 K02BM 227.75460 250.35044 80.92262 3.06448 0.1636178 0.25943209 2.4347456 0 MPO 2601 814 58 1866-2000 0.67 M-v 38h Williams 0000 (21) Lutetia 00022 6.45 0.21 K02BM 84.27121 356.77174 66.26742 13.70985 0.1029295 0.19862711 2.9092232 0 MPO 2601 1062 60 1854-1999 0.62 M-v 38h Williams 0000 (22) Kalliope 00023 6.95 0.15 K02BM 27.85135 59.24770 67.24979 10.14668 0.2338593 0.23150212 2.6268346 0 MPO 4876 888 67 1852-2000 0.53 M-v 38h Goffin 0000 (23) Thalia 00024 7.08 0.19 K02BM 7.89196 107.98143 35.97505 0.76004 0.1335695 0.17795640 3.1303554 MPC 22472 555 44 1908-1993 0.66 M-c 08 Bowell 0000 (24) Themis 00027 7.0 0.15 K02BM 130.44124 356.49644 94.81461 1.58373 0.1719025 0.27418549 2.3466036 0 MPO 4876 1618 79 1853-2000 0.53 M-v 38h Goffin 0000 (27) Euterpe 00029 5.85 0.20 K02BM 277.01185 62.37313 356.54382 6.10163 0.0715293 0.24132992 2.5550257 MPC 23111 707 54 1868-1992 0.58 M-c 08 Bowell 0000 (29) Amphitrite 00030 7.57 0.15 K02BM 204.67124 86.24246 307.93183 2.09854 0.1273228 0.27095904 2.3651950 MPC 24085 509 48 1869-1994 0.70 M-c 08 Bowell 0000 (30) Urania 00037 7.29 0.24 K02BM 44.40320 63.14442 7.42514 3.07261 0.1765718 0.22944455 2.6425156 0 MPC 31001 1399 97 1855-1996 0.55 M-v 38h Goffin 0000 (37) Fides 00039 6.1 0.15 K02BM 97.75923 209.29128 157.19257 10.37299 0.1117093 0.21365247 2.7711760 0 MPC 30777 3843 90 1856-1996 0.52 M-v 38h Goffin 0000 (39) Laetitia 00040 7.0 0.15 K02BM 175.48869 269.54850 94.31183 4.25566 0.0470330 0.28874998 2.2670168 0 MPC 31001 3339 81 1856-1996 0.52 M-v 38h Goffin 0000 (40) Harmonia 00041 7.12 0.10 K02BM 286.26271 46.02754 178.19689 15.75886 0.2721747 0.21422570 2.7662303 0 MPC 31778 618 67 1856-1997 0.55 M-v 38h Goffin 0000 (41) Daphne 00052 6.31 0.18 K02BM 232.69661 342.82686 129.02301 7.46900 0.1013988 0.18059594 3.0997790 MPC 24371 1231 82 1858-1994 0.80 M-c 08 Goffin 0000 (52) Europa 00056 8.31 0.15 K02BM 274.10285 103.73150 193.49105 8.07080 0.2374934 0.23571764 2.5954221 MPC 24085 164 31 1870-1994 0.87 M-c 08 Bowell 0000 (56) Melete 00059 7.93 0.15 K02BM 276.89087 210.19116 170.31566 8.64255 0.1186233 0.22049885 2.7135125 MPC 24219 195 40 1871-1993 0.82 M-c 08 Bowell 0000 (59) Elpis 00063 7.55 0.25 K02BM 344.24657 296.00919 337.95841 5.78823 0.1260508 0.26585304 2.3953830 0 MPC 35405 940 76 1861-1998 0.53 M-v 38h Goffin 0000 (63) Ausonia 00069 7.05 0.19 K02BM 229.59731 289.80396 185.18270 8.58681 0.1648945 0.19148151 2.9811568 1 MPC 27086 449 69 1861-1993 1.01 M-v 38d Goffin 0000 (69) Hesperia 00078 8.09 0.08 K02BM 5.08024 151.49163 333.59118 8.68962 0.2083558 0.23237779 2.6202314 0 MPC 25033 223 37 1870-1994 0.84 M-c 08 Bowell 0000 (78) Diana 00082 8.40 0.28 K02BM 328.75880 110.53889 25.65344 2.83325 0.2252849 0.21505129 2.7591460 MPC 24548 165 40 1879-1993 0.87 M-c 08 Bowell 0000 (82) Alkmene 00084 9.32 0.15 K02BM 278.78370 14.61461 327.74732 9.34385 0.2378526 0.27164780 2.3611954 0 MPO 595 452 58 1865-1999 0.56 M-v 38h Goffin 0000 (84) Klio 00085 7.61 0.15 K02BM 292.99832 122.49722 203.45212 11.96579 0.1928343 0.22811307 2.6527883 0 MPO 31791 946 71 1865-2002 0.57 M-v 38h Goffin 0000 (85) Io 00089 6.60 0.15 K02BM 126.12649 45.05910 311.67370 16.14399 0.1820774 0.24166515 2.5526623 0 MPC 30777 722 59 1866-1995 0.54 M-v 38h Goffin 0000 (89) Julia 00097 7.63 0.15 K02BM 34.72324 269.00241 159.77958 11.78012 0.2566982 0.22598295 2.6694324 0 MPO 2601 607 45 1870-2000 0.66 M-v 38h Williams 0000 (97) Klotho 00115 7.51 0.12 K02BM 206.64774 96.28090 309.14393 11.60095 0.1919507 0.26849224 2.3796599 0 MPO 2601 616 46 1872-1999 0.62 M-v 38h Williams 0000 (115) Thyra 00116 7.82 0.15 K02BM 19.85533 92.78382 64.05177 3.56936 0.1381557 0.21393270 2.7687555 0 MPO 595 460 61 1871-1999 0.56 M-v 38h Goffin 0000 (116) Sirona 00172 8.79 0.15 K02BM 272.61972 359.52600 332.14118 10.03793 0.1151280 0.26855511 2.3792885 MPC 24085 293 55 1877-1991 1.01 M-c 08 Goffin 0000 (172) Baucis 00192 7.13 0.03 K02BM 211.31843 29.82509 343.46641 6.82570 0.2475626 0.26479914 2.4017345 0 MPC 31001 864 67 1847-1996 0.53 M-v 38h Goffin 0000 (192) Nausikaa 00194 7.68 0.15 K02BM 318.36206 163.07307 159.54729 18.49656 0.2369166 0.23285071 2.6166823 0 MPC 26546 425 60 1879-1994 0.99 M-v 38d Goffin 0000 (194) Prokne 00196 6.54 0.15 K02BM 89.96773 205.24143 72.64883 7.25338 0.0246232 0.17945700 3.1128805 0 MPO 2601 742 58 1879-2000 0.65 M-v 38h Williams 0000 (196) Philomela 00198 8.33 0.15 K02BM 293.02443 88.20660 268.69092 9.30182 0.2296379 0.25572202 2.4582382 1 MPC 30889 93 31 1908-1995 1.08 M-v 38d Sumzina 0000 (198) Ampella 00216 7.30 0.29 K02BM 246.32717 179.13545 215.68808 13.13552 0.2523376 0.21114024 2.7931143 0 MPC 31001 1272 69 1880-1997 0.52 M-v 38h Goffin 0000 (216) Kleopatra 00230 7.35 0.27 K02BM 215.85084 139.25131 239.99208 9.43523 0.0619422 0.26810225 2.3819670 0 MPC 31001 797 64 1882-1996 0.53 M-v 38h Goffin 0000 (230) Athamantis 00245 7.82 0.15 K02BM 300.59791 327.04970 61.56987 5.17594 0.2008061 0.18102297 3.0949022 1 MPC 25033 88 31 1916-1994 0.92 M-c 08 Bowell 0000 (245) Vera 00313 8.90 0.15 K02BM 356.42162 315.79143 176.83270 11.64399 0.1802728 0.26907976 2.3761947 0 MPC 31778 633 62 1891-1997 0.56 M-v 38h Goffin 0000 (313) Chaldaea 00346 7.13 0.15 K02BM 216.69075 290.34738 92.17975 8.76149 0.1031147 0.21093846 2.7948952 MPC 22200 246 54 1892-1992 0.94 M-v 38 Goffin 0000 (346) Hermentaria 00354 6.44 0.37 K02BM 149.95725 6.69888 140.51638 18.38442 0.1124839 0.21035472 2.8000635 0 MPC 31001 1700 75 1893-1997 0.55 M-v 38h Goffin 0000 (354) Eleonora 00416 7.89 0.20 K02BM 290.34545 198.68468 58.22939 12.85976 0.2178474 0.21126796 2.7919885 MPC 22473 320 42 1896-1993 1.05 M-c 08 Goffin 0000 (416) Vaticana 00511 6.22 0.16 K02BM 2.31580 339.09783 107.76790 15.94742 0.1840636 0.17473651 3.1686938 0 MPC 31002 1127 73 1903-1997 0.54 M-v 38h Goffin 0000 (511) Davida 00516 8.27 0.15 K02BM 342.65637 258.40028 328.91582 12.95653 0.2728407 0.22463798 2.6800769 0 MPC 34570 258 45 1903-1998 0.55 M-v 38h Goffin 0000 (516) Amherstia 00521 8.31 -0.06 K02BM 303.70478 315.13871 90.04728 10.56043 0.2789151 0.21684462 2.7439127 0 MPO 33740 415 49 1904-2002 0.55 M-v 38h Goffin 0000 (521) Brixia 00532 5.81 0.26 K02BM 142.15781 76.86717 107.65510 16.30843 0.1777919 0.21355929 2.7719820 0 MPC 31002 2223 69 1904-1997 0.53 M-v 38h Goffin 0000 (532) Herculina 00584 8.71 0.24 K02BM 259.37113 84.45356 282.45867 10.72233 0.2343484 0.26959707 2.3731541 0 MPO 33740 360 48 1906-2002 0.55 M-v 38h Goffin 0000 (584) Semiramis 00674 7.42 0.15 K02BM 241.72751 42.11036 58.29489 13.49536 0.1902035 0.19679719 2.9272296 0 MPC 31778 350 49 1901-1997 0.56 M-v 38h Goffin 0000 (674) Rachele 00704 5.94 -0.02 K02BM 76.05305 95.10619 280.65703 17.32284 0.1464651 0.18364631 3.0653583 0 MPC 31002 2007 62 1910-1997 0.53 M-v 38h Goffin 0000 (704) Interamnia 00779 8.3 0.15 K02BM 291.96738 48.99495 283.90693 14.57273 0.2253168 0.22655825 2.6649115 0 MPC 28814 240 41 1914-1996 0.89 M-v 38h Goffin 0000 (779) Nina 01166 8.8 0.15 K02BM 300.34745 189.44272 106.82029 18.88865 0.2069071 0.24403578 2.5361039 1 MPC 35406 29 15 1938-1999 0.70 M-v 38h Bowell 0000 (1166) Sakuntala